| time (UTC) | temp F | wind direction | speed knots | gust knots | rain 1hr in | rain 24hr in | rain mn in | humidity % | barometer mb |
| 20260510185922 | 89 | 51 | 0.9 | 5.2 | 0.00 | 0.00 | 0.00 | 30 | 1009.2 |
| 20260510185421 | 89 | 209 | 0.9 | 5.2 | 0.00 | 0.00 | 0.00 | 30 | 1009.2 |
| 20260510185138 | 89 | 48 | 0.0 | 1.7 | 0.00 | 0.00 | 0.00 | 33 | 1009.1 |
| 20260510184420 | 89 | 11 | 0.0 | 1.7 | 0.00 | 0.00 | 0.00 | 31 | 1009.1 |
| 20260510183923 | 88 | 187 | 0.0 | 1.7 | 0.00 | 0.00 | 0.00 | 30 | 1009.2 |
| 20260510183420 | 88 | 56 | 0.9 | 5.2 | 0.00 | 0.00 | 0.00 | 31 | 1009.2 |
| 20260510182921 | 88 | 358 | 0.9 | 5.2 | 0.00 | 0.00 | 0.00 | 33 | 1009.3 |
| 20260510182421 | 87 | 83 | 0.9 | 4.3 | 0.00 | 0.00 | 0.00 | 32 | 1009.2 |
| 20260510181920 | 87 | 211 | 1.7 | 4.3 | 0.00 | 0.00 | 0.00 | 31 | 1009.2 |
| 20260510181419 | 87 | 348 | 0.9 | 4.3 | 0.00 | 0.00 | 0.00 | 31 | 1009.3 |
| 20260510180919 | 88 | 173 | 0.9 | 6.1 | 0.00 | 0.00 | 0.00 | 32 | 1009.2 |
| 20260510180413 | 88 | 192 | 0.9 | 6.1 | 0.00 | 0.00 | 0.00 | 32 | 1009.2 |
| 20260510175907 | 89 | 176 | 0.0 | 2.6 | 0.00 | 0.00 | 0.00 | 32 | 1009.2 |
| 20260510175401 | 89 | 179 | 0.0 | 0.9 | 0.00 | 0.00 | 0.00 | 33 | 1009.2 |
| 20260510174854 | 88 | 244 | 0.0 | 2.6 | 0.00 | 0.00 | 0.00 | 32 | 1009.2 |
| 20260510174348 | 88 | 43 | 0.9 | 2.6 | 0.00 | 0.00 | 0.00 | 30 | 1009.3 |
| 20260510173844 | 88 | 191 | 0.9 | 2.6 | 0.00 | 0.00 | 0.00 | 31 | 1009.4 |
| 20260510173528 | 88 | 172 | 0.0 | 2.6 | 0.00 | 0.00 | 0.00 | 33 | 1009.4 |
| 20260510173420 | 89 | 200 | 0.0 | 2.6 | 0.00 | 0.00 | 0.00 | 33 | 1009.5 |
| 20260510172324 | 88 | 155 | 0.0 | 1.7 | 0.00 | 0.00 | 0.00 | 33 | 1009.5 |
| 20260510171819 | 88 | 274 | 0.0 | 1.7 | 0.00 | 0.00 | 0.00 | 33 | 1009.4 |
| 20260510171313 | 87 | 160 | 0.9 | 1.7 | 0.00 | 0.00 | 0.00 | 34 | 1009.6 |
| 20260510171025 | 86 | 231 | 0.0 | 1.7 | 0.00 | 0.00 | 0.00 | 33 | 1009.6 |
| 20260510170301 | 86 | 158 | 0.9 | 2.6 | 0.00 | 0.00 | 0.00 | 33 | 1009.7 |
| 20260510165754 | 85 | 148 | 0.9 | 4.3 | 0.00 | 0.00 | 0.00 | 31 | 1009.8 |
| 20260510165249 | 86 | 49 | 0.9 | 4.3 | 0.00 | 0.00 | 0.00 | 33 | 1009.8 |
| 20260510165014 | 86 | 30 | 0.9 | 2.6 | 0.00 | 0.00 | 0.00 | 33 | 1009.9 |
| 20260510164236 | 85 | 214 | 0.9 | 2.6 | 0.00 | 0.00 | 0.00 | 35 | 1009.9 |
| 20260510163957 | 85 | 345 | 0.9 | 3.5 | 0.00 | 0.00 | 0.00 | 36 | 1009.8 |
| 20260510163225 | 84 | 236 | 0.0 | 3.5 | 0.00 | 0.00 | 0.00 | 36 | 1009.9 |
| 20260510162719 | 83 | 117 | 0.9 | 3.5 | 0.00 | 0.00 | 0.00 | 38 | 1009.8 |
| 20260510162213 | 83 | 47 | 0.9 | 3.5 | 0.00 | 0.00 | 0.00 | 40 | 1009.8 |
| 20260510161707 | 83 | 31 | 0.0 | 2.6 | 0.00 | 0.00 | 0.00 | 39 | 1009.8 |
| 20260510161201 | 82 | 152 | 0.0 | 3.5 | 0.00 | 0.00 | 0.00 | 40 | 1009.9 |
| 20260510160655 | 82 | 167 | 0.0 | 3.5 | 0.00 | 0.00 | 0.00 | 40 | 1010.0 |
| 20260510160149 | 81 | 139 | 0.0 | 1.7 | 0.00 | 0.00 | 0.00 | 43 | 1010.1 |
| 20260510155643 | 80 | 206 | 0.0 | 1.7 | 0.00 | 0.00 | 0.00 | 44 | 1010.1 |
| 20260510155133 | 80 | 169 | 0.0 | 0.9 | 0.00 | 0.00 | 0.00 | 45 | 1010.0 |
| 20260510154626 | 79 | 209 | 0.0 | 0.9 | 0.00 | 0.00 | 0.00 | 47 | 1010.1 |
| 20260510154121 | 78 | 29 | 0.0 | 1.7 | 0.00 | 0.00 | 0.00 | 46 | 1010.2 |
| 20260510153615 | 78 | 41 | 0.9 | 1.7 | 0.00 | 0.00 | 0.00 | 48 | 1010.2 |
| 20260510153108 | 78 | 219 | 0.0 | 1.7 | 0.00 | 0.00 | 0.00 | 46 | 1010.2 |
| 20260510152603 | 77 | 217 | 0.0 | 2.6 | 0.00 | 0.00 | 0.00 | 47 | 1010.2 |
| 20260510152057 | 77 | 229 | 0.0 | 2.6 | 0.00 | 0.00 | 0.00 | 49 | 1010.2 |
| 20260510151551 | 76 | 214 | 0.9 | 3.5 | 0.00 | 0.00 | 0.00 | 49 | 1010.4 |
| 20260510151044 | 76 | 210 | 0.9 | 3.5 | 0.00 | 0.00 | 0.00 | 49 | 1010.4 |
| 20260510150800 | 75 | 217 | 0.0 | 0.9 | 0.00 | 0.00 | 0.00 | 50 | 1010.3 |
| 20260510150033 | 75 | 217 | 0.0 | 2.6 | 0.00 | 0.00 | 0.00 | 49 | 1010.3 |
| 20260510145527 | 74 | 218 | 0.0 | 2.6 | 0.00 | 0.00 | 0.00 | 49 | 1010.5 |
| 20260510145022 | 74 | 204 | 0.0 | 0.9 | 0.00 | 0.00 | 0.00 | 50 | 1010.4 |
| 20260510144748 | 74 | 216 | 0.0 | 0.9 | 0.00 | 0.00 | 0.00 | 54 | 1010.3 |
| 20260510144022 | 73 | 216 | 0.0 | 0.9 | 0.00 | 0.00 | 0.00 | 52 | 1010.3 |
| 20260510143522 | 73 | 231 | 0.0 | 0.9 | 0.00 | 0.00 | 0.00 | 51 | 1010.3 |
| 20260510143021 | 72 | 229 | 0.0 | 0.9 | 0.00 | 0.00 | 0.00 | 53 | 1010.2 |
| 20260510142520 | 72 | 90 | 0.0 | 0.9 | 0.00 | 0.00 | 0.00 | 53 | 1010.2 |
| 20260510142019 | 71 | 162 | 0.0 | 0.9 | 0.00 | 0.00 | 0.00 | 53 | 1010.1 |
| 20260510141520 | 71 | 218 | 0.0 | 0.9 | 0.00 | 0.00 | 0.00 | 54 | 1010.1 |
| 20260510141020 | 71 | 219 | 0.0 | 0.9 | 0.00 | 0.00 | 0.00 | 53 | 1010.2 |
| 20260510140517 | 71 | 254 | 0.0 | 0.9 | 0.00 | 0.00 | 0.00 | 54 | 1010.2 |
| 20260510140015 | 71 | 216 | 0.0 | 1.7 | 0.00 | 0.00 | 0.00 | 52 | 1010.2 |
| 20260510135513 | 70 | 73 | 0.0 | 2.6 | 0.00 | 0.00 | 0.00 | 54 | 1010.1 |
| 20260510135012 | 70 | 219 | 0.0 | 2.6 | 0.00 | 0.00 | 0.00 | 56 | 1010.1 |
| 20260510134513 | 69 | 230 | 0.0 | 0.0 | 0.00 | 0.00 | 0.00 | 58 | 1010.1 |
| 20260510134231 | 69 | 142 | 0.0 | 0.0 | 0.00 | 0.00 | 0.00 | 61 | 1010.1 |
| 20260510133509 | 68 | 32 | 0.0 | 0.0 | 0.00 | 0.00 | 0.00 | 64 | 1010.2 |
| 20260510133008 | 68 | 169 | 0.0 | 1.7 | 0.00 | 0.00 | 0.00 | 64 | 1010.1 |
| 20260510132504 | 68 | 174 | 0.0 | 1.7 | 0.00 | 0.00 | 0.00 | 64 | 1010.1 |
| 20260510132005 | 68 | 161 | 0.0 | 1.7 | 0.00 | 0.00 | 0.00 | 64 | 1010.3 |
| 20260510131726 | 67 | 205 | 0.0 | 1.7 | 0.00 | 0.00 | 0.00 | 66 | 1010.3 |
| 20260510131002 | 67 | 121 | 0.0 | 2.6 | 0.00 | 0.00 | 0.00 | 69 | 1010.4 |
| 20260510130455 | 66 | 223 | 0.0 | 2.6 | 0.00 | 0.00 | 0.00 | 71 | 1010.3 |
| 20260510125953 | 66 | 219 | 0.0 | 1.7 | 0.00 | 0.00 | 0.00 | 72 | 1010.1 |
| 20260510125450 | 65 | 221 | 0.0 | 1.7 | 0.00 | 0.00 | 0.00 | 74 | 1010.0 |
| 20260510124949 | 65 | 234 | 0.0 | 0.9 | 0.00 | 0.00 | 0.00 | 75 | 1009.9 |
| 20260510124448 | 64 | 231 | 0.0 | 2.6 | 0.00 | 0.00 | 0.00 | 77 | 1009.8 |
| 20260510123947 | 63 | 163 | 0.0 | 2.6 | 0.00 | 0.00 | 0.00 | 79 | 1009.9 |
| 20260510123447 | 63 | 220 | 0.0 | 1.7 | 0.00 | 0.00 | 0.00 | 82 | 1009.9 |
| 20260510122946 | 62 | 211 | 0.0 | 0.9 | 0.00 | 0.00 | 0.00 | 84 | 1009.9 |
| 20260510122446 | 61 | 217 | 0.0 | 0.9 | 0.00 | 0.00 | 0.00 | 87 | 1009.9 |
| 20260510121944 | 60 | 221 | 0.0 | 0.9 | 0.00 | 0.00 | 0.00 | 88 | 1009.8 |
| 20260510121705 | 60 | 34 | 0.0 | 0.9 | 0.00 | 0.00 | 0.00 | 91 | 1009.5 |
| 20260510120944 | 59 | 141 | 0.0 | 0.9 | 0.00 | 0.00 | 0.00 | 92 | 1009.5 |
| 20260510120712 | 59 | 155 | 0.0 | 0.9 | 0.00 | 0.00 | 0.00 | 94 | 1009.4 |
| 20260510115945 | 58 | 155 | 0.0 | 0.9 | 0.00 | 0.00 | 0.00 | 95 | 1009.3 |
| 20260510115439 | 58 | 11 | 0.0 | 0.9 | 0.00 | 0.00 | 0.00 | 96 | 1009.3 |
| 20260510114940 | 57 | 300 | 0.0 | 0.9 | 0.00 | 0.00 | 0.00 | 96 | 1009.3 |
| 20260510114437 | 57 | 133 | 0.0 | 0.9 | 0.00 | 0.00 | 0.00 | 96 | 1009.2 |
| 20260510113938 | 56 | 132 | 0.0 | 0.9 | 0.00 | 0.00 | 0.00 | 96 | 1009.2 |
| 20260510113434 | 56 | 203 | 0.0 | 0.9 | 0.00 | 0.00 | 0.00 | 96 | 1009.1 |
| 20260510113201 | 55 | 186 | 0.0 | 0.0 | 0.00 | 0.00 | 0.00 | 96 | 1009.1 |
| 20260510112655 | 55 | 186 | 0.0 | 0.0 | 0.00 | 0.00 | 0.00 | 96 | 1009.0 |
| 20260510111934 | 54 | 186 | 0.0 | 0.0 | 0.00 | 0.00 | 0.00 | 96 | 1009.0 |
| 20260510111435 | 54 | 186 | 0.0 | 0.0 | 0.00 | 0.00 | 0.00 | 95 | 1008.9 |
| 20260510110933 | 53 | 186 | 0.0 | 0.0 | 0.00 | 0.00 | 0.00 | 95 | 1008.8 |
| 20260510110433 | 53 | 186 | 0.0 | 0.0 | 0.00 | 0.00 | 0.00 | 95 | 1008.8 |
| 20260510110421 | 53 | 186 | 0.0 | 0.0 | 0.00 | 0.00 | 0.00 | 95 | 1008.8 |
| 20260510105435 | 53 | 186 | 0.0 | 0.0 | 0.00 | 0.00 | 0.00 | 95 | 1008.8 |
| 20260510104930 | 53 | 186 | 0.0 | 0.0 | 0.00 | 0.00 | 0.00 | 94 | 1008.7 |
| 20260510104431 | 53 | 186 | 0.0 | 0.0 | 0.00 | 0.00 | 0.00 | 94 | 1008.6 |
| 20260510103931 | 54 | 186 | 0.0 | 0.0 | 0.00 | 0.00 | 0.00 | 94 | 1008.5 |
| 20260510103431 | 54 | 186 | 0.0 | 0.0 | 0.00 | 0.00 | 0.00 | 94 | 1008.4 |
| 20260510102932 | 54 | 186 | 0.0 | 0.0 | 0.00 | 0.00 | 0.00 | 94 | 1008.4 |
| 20260510102431 | 54 | 186 | 0.0 | 0.0 | 0.00 | 0.00 | 0.00 | 94 | 1008.3 |
| 20260510101931 | 54 | 186 | 0.0 | 0.0 | 0.00 | 0.00 | 0.00 | 94 | 1008.2 |
| 20260510101432 | 54 | 186 | 0.0 | 0.0 | 0.00 | 0.00 | 0.00 | 94 | 1008.2 |
| 20260510100931 | 54 | 186 | 0.0 | 0.0 | 0.00 | 0.00 | 0.00 | 94 | 1008.1 |
| 20260510100427 | 54 | 186 | 0.0 | 0.0 | 0.00 | 0.00 | 0.00 | 93 | 1008.0 |
| 20260510095925 | 54 | 186 | 0.0 | 0.0 | 0.00 | 0.00 | 0.00 | 93 | 1007.9 |
| 20260510095423 | 55 | 186 | 0.0 | 0.0 | 0.00 | 0.00 | 0.00 | 93 | 1007.9 |
| 20260510094924 | 55 | 186 | 0.0 | 0.0 | 0.00 | 0.00 | 0.00 | 93 | 1007.8 |
| 20260510094653 | 55 | 186 | 0.0 | 0.0 | 0.00 | 0.00 | 0.00 | 94 | 1007.8 |
| 20260510093922 | 55 | 186 | 0.0 | 0.0 | 0.00 | 0.00 | 0.00 | 94 | 1007.9 |
| 20260510093421 | 55 | 186 | 0.0 | 0.0 | 0.00 | 0.00 | 0.00 | 93 | 1007.8 |
| 20260510092921 | 55 | 186 | 0.0 | 0.0 | 0.00 | 0.00 | 0.00 | 93 | 1007.7 |
| 20260510092420 | 55 | 186 | 0.0 | 0.0 | 0.00 | 0.00 | 0.00 | 93 | 1007.7 |
| 20260510091922 | 55 | 186 | 0.0 | 0.0 | 0.00 | 0.00 | 0.00 | 93 | 1007.8 |
| 20260510091909 | 56 | 186 | 0.0 | 0.0 | 0.00 | 0.00 | 0.00 | 93 | 1007.7 |
| 20260510091538 | 56 | 186 | 0.0 | 0.0 | 0.00 | 0.00 | 0.00 | 92 | 1007.6 |
| 20260510090419 | 56 | 186 | 0.0 | 0.0 | 0.00 | 0.00 | 0.00 | 93 | 1007.5 |
| 20260510085919 | 56 | 186 | 0.0 | 0.0 | 0.00 | 0.00 | 0.00 | 93 | 1007.4 |
| 20260510085415 | 56 | 186 | 0.0 | 0.0 | 0.00 | 0.00 | 0.00 | 92 | 1007.3 |
| 20260510084914 | 56 | 186 | 0.0 | 0.0 | 0.00 | 0.00 | 0.00 | 91 | 1007.3 |
| 20260510084414 | 56 | 186 | 0.0 | 0.0 | 0.00 | 0.00 | 0.00 | 91 | 1007.4 |
| 20260510083908 | 57 | 186 | 0.0 | 0.0 | 0.00 | 0.00 | 0.00 | 91 | 1007.3 |
| 20260510083637 | 57 | 186 | 0.0 | 0.0 | 0.00 | 0.00 | 0.00 | 91 | 1007.3 |
| 20260510082856 | 57 | 186 | 0.0 | 0.0 | 0.00 | 0.00 | 0.00 | 91 | 1007.3 |
| 20260510082838 | 57 | 186 | 0.0 | 0.0 | 0.00 | 0.00 | 0.00 | 91 | 1007.3 |
| 20260510081844 | 58 | 186 | 0.0 | 0.0 | 0.00 | 0.00 | 0.00 | 91 | 1007.3 |
| 20260510081338 | 58 | 186 | 0.0 | 0.0 | 0.00 | 0.00 | 0.00 | 91 | 1007.2 |
| 20260510081051 | 58 | 186 | 0.0 | 0.0 | 0.00 | 0.00 | 0.00 | 90 | 1007.1 |
| 20260510080326 | 58 | 186 | 0.0 | 0.0 | 0.00 | 0.00 | 0.00 | 90 | 1007.1 |
| 20260510075820 | 59 | 186 | 0.0 | 0.0 | 0.00 | 0.00 | 0.00 | 90 | 1007.2 |
| 20260510075314 | 59 | 186 | 0.0 | 0.0 | 0.00 | 0.00 | 0.00 | 90 | 1007.1 |
| 20260510074808 | 59 | 186 | 0.0 | 0.0 | 0.00 | 0.00 | 0.00 | 89 | 1007.1 |
| 20260510074302 | 60 | 186 | 0.0 | 0.0 | 0.00 | 0.00 | 0.00 | 89 | 1007.1 |
| 20260510073755 | 60 | 186 | 0.0 | 0.0 | 0.00 | 0.00 | 0.00 | 89 | 1007.1 |
| 20260510073732 | 60 | 186 | 0.0 | 0.0 | 0.00 | 0.00 | 0.00 | 88 | 1007.1 |
| 20260510072745 | 61 | 186 | 0.0 | 0.0 | 0.00 | 0.00 | 0.00 | 87 | 1007.1 |
| 20260510072237 | 61 | 186 | 0.0 | 0.0 | 0.00 | 0.00 | 0.00 | 87 | 1007.0 |
| 20260510071731 | 62 | 186 | 0.0 | 0.0 | 0.00 | 0.00 | 0.00 | 86 | 1007.0 |
| 20260510071225 | 62 | 186 | 0.0 | 0.0 | 0.00 | 0.00 | 0.00 | 86 | 1007.0 |
| 20260510070720 | 62 | 186 | 0.0 | 0.0 | 0.00 | 0.00 | 0.00 | 85 | 1007.0 |
| 20260510070213 | 62 | 186 | 0.0 | 0.0 | 0.00 | 0.00 | 0.00 | 85 | 1007.0 |
| 20260510065709 | 63 | 186 | 0.0 | 0.0 | 0.00 | 0.00 | 0.00 | 84 | 1007.0 |
| 20260510065647 | 63 | 186 | 0.0 | 0.0 | 0.00 | 0.00 | 0.00 | 84 | 1007.1 |
| 20260510064657 | 63 | 186 | 0.0 | 0.0 | 0.00 | 0.00 | 0.00 | 84 | 1007.1 |
| 20260510064151 | 64 | 186 | 0.0 | 0.9 | 0.00 | 0.00 | 0.00 | 84 | 1007.1 |
| 20260510063644 | 64 | 184 | 0.0 | 0.9 | 0.00 | 0.00 | 0.00 | 83 | 1007.1 |
| 20260510063138 | 64 | 42 | 0.0 | 1.7 | 0.00 | 0.00 | 0.00 | 83 | 1007.1 |
| 20260510062848 | 65 | 204 | 0.0 | 1.7 | 0.00 | 0.00 | 0.00 | 82 | 1007.0 |
| 20260510062126 | 65 | 303 | 0.0 | 3.5 | 0.00 | 0.00 | 0.00 | 82 | 1006.9 |
| 20260510061620 | 65 | 299 | 0.9 | 3.5 | 0.00 | 0.00 | 0.00 | 82 | 1007.0 |
| 20260510061114 | 65 | 185 | 0.0 | 3.5 | 0.00 | 0.00 | 0.00 | 81 | 1007.0 |
| 20260510060608 | 65 | 181 | 0.0 | 1.7 | 0.00 | 0.00 | 0.00 | 81 | 1007.0 |
| 20260510055556 | 66 | 215 | 0.9 | 4.3 | 0.00 | 0.00 | 0.00 | 80 | 1006.8 |
| 20260510055050 | 66 | 10 | 0.9 | 3.5 | 0.00 | 0.00 | 0.00 | 80 | 1006.9 |
| 20260510054544 | 66 | 203 | 0.9 | 4.3 | 0.00 | 0.00 | 0.00 | 80 | 1007.0 |
| 20260510054039 | 67 | 233 | 0.9 | 4.3 | 0.00 | 0.00 | 0.00 | 79 | 1006.9 |
| 20260510053532 | 67 | 198 | 0.9 | 3.5 | 0.00 | 0.00 | 0.00 | 79 | 1007.0 |
| 20260510053026 | 67 | 253 | 0.9 | 3.5 | 0.00 | 0.00 | 0.00 | 79 | 1006.9 |
| 20260510052520 | 67 | 192 | 0.9 | 2.6 | 0.00 | 0.00 | 0.00 | 79 | 1006.9 |
| 20260510052241 | 67 | 136 | 0.9 | 3.5 | 0.00 | 0.00 | 0.00 | 79 | 1006.9 |
| 20260510051507 | 67 | 235 | 0.0 | 3.5 | 0.00 | 0.00 | 0.00 | 79 | 1007.0 |
| 20260510051003 | 67 | 239 | 0.0 | 1.7 | 0.00 | 0.00 | 0.00 | 78 | 1006.9 |
| 20260510050457 | 67 | 61 | 0.0 | 2.6 | 0.00 | 0.00 | 0.00 | 78 | 1007.0 |
| 20260510050208 | 67 | 201 | 0.0 | 2.6 | 0.00 | 0.00 | 0.00 | 78 | 1007.0 |
| 20260510045444 | 67 | 210 | 0.0 | 1.7 | 0.00 | 0.00 | 0.00 | 78 | 1006.9 |
| 20260510044938 | 67 | 240 | 0.0 | 1.7 | 0.00 | 0.00 | 0.00 | 78 | 1007.0 |
| 20260510044432 | 67 | 250 | 0.0 | 1.7 | 0.00 | 0.00 | 0.00 | 78 | 1007.0 |
| 20260510043926 | 67 | 298 | 0.0 | 0.9 | 0.00 | 0.00 | 0.00 | 78 | 1007.0 |
| 20260510043420 | 67 | 229 | 0.0 | 0.9 | 0.00 | 0.00 | 0.00 | 77 | 1007.0 |
| 20260510042914 | 67 | 267 | 0.0 | 1.7 | 0.00 | 0.00 | 0.00 | 77 | 1007.0 |
| 20260510042628 | 67 | 29 | 0.0 | 1.7 | 0.00 | 0.00 | 0.00 | 77 | 1007.0 |
| 20260510041903 | 67 | 139 | 0.0 | 1.7 | 0.00 | 0.00 | 0.00 | 77 | 1007.0 |
| 20260510041625 | 67 | 245 | 0.0 | 1.7 | 0.00 | 0.00 | 0.00 | 77 | 1007.0 |
| 20260510040850 | 67 | 292 | 0.0 | 3.5 | 0.00 | 0.00 | 0.00 | 76 | 1007.0 |
| 20260510040344 | 67 | 220 | 0.0 | 2.6 | 0.00 | 0.00 | 0.00 | 76 | 1006.9 |
| 20260510035838 | 67 | 148 | 0.0 | 0.9 | 0.00 | 0.00 | 0.00 | 76 | 1006.9 |
| 20260510035332 | 67 | 18 | 0.0 | 0.9 | 0.00 | 0.00 | 0.00 | 76 | 1006.8 |
| 20260510034826 | 67 | 13 | 0.0 | 2.6 | 0.00 | 0.00 | 0.00 | 76 | 1006.8 |
| 20260510034320 | 67 | 350 | 0.0 | 2.6 | 0.00 | 0.00 | 0.00 | 76 | 1006.8 |
| 20260510033814 | 66 | 177 | 0.0 | 0.0 | 0.00 | 0.00 | 0.00 | 76 | 1006.8 |
| 20260510033308 | 66 | 178 | 0.0 | 0.0 | 0.00 | 0.00 | 0.00 | 76 | 1006.8 |
| 20260510032802 | 66 | 178 | 0.0 | 0.0 | 0.00 | 0.00 | 0.00 | 75 | 1006.8 |
| 20260510032256 | 66 | 178 | 0.0 | 0.9 | 0.00 | 0.00 | 0.00 | 75 | 1006.7 |
| 20260510031750 | 66 | 178 | 0.0 | 0.9 | 0.00 | 0.00 | 0.00 | 76 | 1006.7 |
| 20260510031244 | 66 | 129 | 0.0 | 0.9 | 0.00 | 0.00 | 0.00 | 75 | 1006.7 |
| 20260510030738 | 66 | 124 | 0.0 | 0.9 | 0.00 | 0.00 | 0.00 | 75 | 1006.6 |
| 20260510030232 | 66 | 125 | 0.0 | 0.9 | 0.00 | 0.00 | 0.00 | 75 | 1006.7 |
| 20260510025726 | 66 | 134 | 0.0 | 0.0 | 0.00 | 0.00 | 0.00 | 75 | 1006.6 |
| 20260510025220 | 66 | 134 | 0.0 | 0.0 | 0.00 | 0.00 | 0.00 | 75 | 1006.5 |
| 20260510024714 | 66 | 134 | 0.0 | 0.0 | 0.00 | 0.00 | 0.00 | 75 | 1006.5 |
| 20260510024207 | 66 | 75 | 0.0 | 0.0 | 0.00 | 0.00 | 0.00 | 74 | 1006.5 |
| 20260510023702 | 66 | 75 | 0.0 | 0.9 | 0.00 | 0.00 | 0.00 | 74 | 1006.5 |
| 20260510023156 | 66 | 75 | 0.0 | 0.9 | 0.00 | 0.00 | 0.00 | 74 | 1006.4 |
| 20260510022651 | 66 | 75 | 0.0 | 0.0 | 0.00 | 0.00 | 0.00 | 74 | 1006.3 |
| 20260510022144 | 65 | 75 | 0.0 | 0.0 | 0.00 | 0.00 | 0.00 | 74 | 1006.3 |
| 20260510021857 | 65 | 75 | 0.0 | 0.0 | 0.00 | 0.00 | 0.00 | 74 | 1006.2 |
| 20260510021610 | 65 | 75 | 0.0 | 0.0 | 0.00 | 0.00 | 0.00 | 74 | 1006.2 |
| 20260510020625 | 65 | 74 | 0.0 | 0.0 | 0.00 | 0.00 | 0.00 | 74 | 1006.1 |
| 20260510020120 | 65 | 74 | 0.0 | 0.0 | 0.00 | 0.00 | 0.00 | 74 | 1006.0 |
| 20260510015614 | 65 | 74 | 0.0 | 0.0 | 0.00 | 0.00 | 0.00 | 73 | 1005.9 |
| 20260510015108 | 65 | 74 | 0.0 | 0.0 | 0.00 | 0.00 | 0.00 | 73 | 1005.9 |
| 20260510014602 | 65 | 74 | 0.0 | 0.0 | 0.00 | 0.00 | 0.00 | 73 | 1005.8 |
| 20260510014317 | 65 | 74 | 0.0 | 0.0 | 0.00 | 0.00 | 0.00 | 73 | 1005.7 |
| 20260510013810 | 64 | 74 | 0.0 | 0.0 | 0.00 | 0.00 | 0.00 | 73 | 1005.8 |
| 20260510013044 | 64 | 74 | 0.0 | 0.0 | 0.00 | 0.00 | 0.00 | 72 | 1005.8 |
| 20260510012757 | 65 | 74 | 0.0 | 0.0 | 0.00 | 0.00 | 0.00 | 70 | 1005.7 |
| 20260510012033 | 65 | 74 | 0.0 | 0.0 | 0.00 | 0.00 | 0.00 | 70 | 1005.6 |
| 20260510011526 | 65 | 74 | 0.0 | 0.0 | 0.00 | 0.00 | 0.00 | 69 | 1005.6 |
| 20260510011020 | 65 | 74 | 0.0 | 0.0 | 0.00 | 0.00 | 0.00 | 68 | 1005.5 |
| 20260510010731 | 66 | 74 | 0.0 | 0.0 | 0.00 | 0.00 | 0.00 | 68 | 1005.5 |
| 20260510010007 | 66 | 74 | 0.0 | 0.0 | 0.00 | 0.00 | 0.00 | 67 | 1005.5 |
| 20260510005502 | 67 | 74 | 0.0 | 0.0 | 0.00 | 0.00 | 0.00 | 66 | 1005.4 |
| 20260510004956 | 67 | 74 | 0.0 | 0.0 | 0.00 | 0.00 | 0.00 | 66 | 1005.3 |
| 20260510004450 | 67 | 74 | 0.0 | 0.0 | 0.00 | 0.00 | 0.00 | 66 | 1005.2 |
| 20260510003944 | 68 | 74 | 0.0 | 0.0 | 0.00 | 0.00 | 0.00 | 64 | 1005.2 |
| 20260510003708 | 68 | 74 | 0.0 | 0.0 | 0.00 | 0.00 | 0.00 | 63 | 1005.1 |
| 20260510002932 | 69 | 74 | 0.0 | 0.0 | 0.00 | 0.00 | 0.00 | 62 | 1005.1 |
| 20260510002910 | 69 | 74 | 0.0 | 0.0 | 0.00 | 0.00 | 0.00 | 62 | 1005.0 |
| 20260510001926 | 70 | 74 | 0.0 | 0.0 | 0.00 | 0.00 | 0.00 | 61 | 1004.9 |
| 20260510001651 | 70 | 74 | 0.0 | 0.0 | 0.00 | 0.00 | 0.00 | 59 | 1005.0 |
| 20260510000926 | 71 | 74 | 0.0 | 0.0 | 0.00 | 0.00 | 0.00 | 59 | 1004.9 |
| 20260510000425 | 72 | 74 | 0.0 | 0.0 | 0.00 | 0.00 | 0.00 | 58 | 1004.7 |
| 20260509235926 | 72 | 74 | 0.0 | 0.9 | 0.00 | 0.00 | 0.00 | 58 | 1004.7 |
| 20260509235425 | 73 | 74 | 0.0 | 0.9 | 0.00 | 0.00 | 0.00 | 56 | 1004.8 |
| 20260509234926 | 73 | 76 | 0.0 | 0.0 | 0.00 | 0.00 | 0.00 | 56 | 1004.7 |
| 20260509234640 | 74 | 76 | 0.0 | 0.0 | 0.00 | 0.00 | 0.00 | 54 | 1004.6 |
| 20260509233925 | 74 | 76 | 0.0 | 0.0 | 0.00 | 0.00 | 0.00 | 53 | 1004.6 |
| 20260509233423 | 74 | 76 | 0.0 | 0.9 | 0.00 | 0.00 | 0.00 | 53 | 1004.7 |
| 20260509232923 | 75 | 76 | 0.0 | 0.9 | 0.00 | 0.00 | 0.00 | 52 | 1004.6 |
| 20260509232424 | 75 | 49 | 0.0 | 1.7 | 0.00 | 0.00 | 0.00 | 51 | 1004.7 |
| 20260509231922 | 75 | 46 | 0.0 | 1.7 | 0.00 | 0.00 | 0.00 | 51 | 1004.7 |
| 20260509231418 | 75 | 173 | 0.0 | 0.9 | 0.00 | 0.00 | 0.00 | 51 | 1004.7 |
| 20260509230918 | 76 | 223 | 0.0 | 0.9 | 0.00 | 0.00 | 0.00 | 51 | 1004.7 |
| 20260509230416 | 76 | 164 | 0.0 | 2.6 | 0.00 | 0.00 | 0.00 | 51 | 1004.7 |
| 20260509225919 | 76 | 146 | 0.0 | 2.6 | 0.00 | 0.00 | 0.00 | 50 | 1004.7 |
| 20260509225421 | 76 | 226 | 0.0 | 0.9 | 0.00 | 0.00 | 0.00 | 52 | 1004.6 |
| 20260509224915 | 76 | 229 | 0.9 | 3.5 | 0.00 | 0.00 | 0.00 | 51 | 1004.5 |
| 20260509224413 | 76 | 226 | 0.9 | 3.5 | 0.00 | 0.00 | 0.00 | 51 | 1004.5 |
| 20260509223914 | 77 | 39 | 0.0 | 3.5 | 0.00 | 0.00 | 0.00 | 51 | 1004.6 |
| 20260509223412 | 77 | 69 | 0.0 | 3.5 | 0.00 | 0.00 | 0.00 | 49 | 1004.5 |
| 20260509223139 | 77 | 35 | 0.0 | 1.7 | 0.00 | 0.00 | 0.00 | 49 | 1004.5 |
| 20260509222630 | 77 | 212 | 0.0 | 3.5 | 0.00 | 0.00 | 0.00 | 50 | 1004.5 |
| 20260509221908 | 77 | 112 | 0.0 | 3.5 | 0.00 | 0.00 | 0.00 | 51 | 1004.6 |
| 20260509221409 | 77 | 197 | 0.0 | 1.7 | 0.00 | 0.00 | 0.00 | 51 | 1004.7 |
| 20260509221132 | 77 | 78 | 0.9 | 2.6 | 0.00 | 0.00 | 0.00 | 51 | 1004.6 |
| 20260509220410 | 77 | 326 | 0.9 | 4.3 | 0.00 | 0.00 | 0.00 | 50 | 1004.6 |
| 20260509215911 | 77 | 264 | 0.0 | 4.3 | 0.00 | 0.00 | 0.00 | 51 | 1004.6 |
| 20260509215410 | 77 | 141 | 0.0 | 0.0 | 0.00 | 0.00 | 0.00 | 51 | 1004.5 |
| 20260509215131 | 76 | 172 | 0.0 | 0.9 | 0.00 | 0.00 | 0.00 | 52 | 1004.6 |
| 20260509214409 | 76 | 48 | 0.0 | 0.9 | 0.00 | 0.00 | 0.00 | 51 | 1004.5 |
| 20260509213906 | 77 | 283 | 0.0 | 0.9 | 0.00 | 0.00 | 0.00 | 51 | 1004.4 |
| 20260509213629 | 77 | 51 | 0.0 | 1.7 | 0.00 | 0.00 | 0.00 | 50 | 1004.4 |
| 20260509213128 | 78 | 133 | 0.0 | 1.7 | 0.00 | 0.00 | 0.00 | 49 | 1004.4 |
| 20260509212404 | 78 | 214 | 0.9 | 3.5 | 0.00 | 0.00 | 0.00 | 49 | 1004.5 |
| 20260509212125 | 78 | 196 | 0.9 | 3.5 | 0.00 | 0.00 | 0.00 | 47 | 1004.3 |
| 20260509211353 | 80 | 161 | 0.0 | 1.7 | 0.00 | 0.00 | 0.00 | 47 | 1004.4 |
| 20260509210850 | 80 | 21 | 0.0 | 1.7 | 0.00 | 0.00 | 0.00 | 48 | 1004.3 |
| 20260509210348 | 78 | 150 | 0.0 | 0.0 | 0.00 | 0.00 | 0.00 | 50 | 1004.4 |
| 20260509205851 | 78 | 75 | 0.0 | 0.0 | 0.00 | 0.00 | 0.00 | 48 | 1004.4 |
| 20260509205348 | 78 | 154 | 0.0 | 1.7 | 0.00 | 0.00 | 0.00 | 48 | 1004.4 |
| 20260509204851 | 79 | 174 | 0.9 | 2.6 | 0.00 | 0.00 | 0.00 | 47 | 1004.3 |
| 20260509204350 | 80 | 61 | 0.0 | 2.6 | 0.00 | 0.00 | 0.00 | 48 | 1004.3 |
| 20260509203849 | 80 | 150 | 0.0 | 0.9 | 0.00 | 0.00 | 0.00 | 45 | 1004.2 |
| 20260509203348 | 81 | 199 | 0.0 | 3.5 | 0.00 | 0.00 | 0.00 | 45 | 1004.0 |
| 20260509203111 | 81 | 67 | 0.0 | 3.5 | 0.00 | 0.00 | 0.00 | 45 | 1004.0 |
| 20260509202346 | 81 | 145 | 0.0 | 3.5 | 0.00 | 0.00 | 0.00 | 47 | 1004.0 |
| 20260509201846 | 80 | 155 | 0.9 | 3.5 | 0.00 | 0.00 | 0.00 | 47 | 1004.1 |
| 20260509201345 | 79 | 113 | 0.9 | 4.3 | 0.00 | 0.00 | 0.00 | 46 | 1004.3 |
| 20260509200845 | 80 | 207 | 0.9 | 5.2 | 0.00 | 0.00 | 0.00 | 47 | 1004.3 |
| 20260509200346 | 80 | 229 | 0.9 | 5.2 | 0.00 | 0.00 | 0.00 | 46 | 1004.3 |
| 20260509195845 | 80 | 203 | 0.9 | 3.5 | 0.00 | 0.00 | 0.00 | 47 | 1004.4 |
| 20260509195827 | 79 | 302 | 0.9 | 3.5 | 0.00 | 0.00 | 0.00 | 49 | 1004.5 |
| 20260509194845 | 78 | 148 | 0.0 | 1.7 | 0.00 | 0.00 | 0.00 | 50 | 1004.7 |
| 20260509194345 | 76 | 152 | 0.0 | 1.7 | 0.00 | 0.00 | 0.00 | 49 | 1004.7 |
| 20260509193846 | 76 | 227 | 0.9 | 3.5 | 0.00 | 0.00 | 0.00 | 49 | 1004.8 |
| 20260509193604 | 77 | 145 | 0.9 | 3.5 | 0.00 | 0.00 | 0.00 | 47 | 1004.8 |
| 20260509192844 | 78 | 64 | 0.9 | 5.2 | 0.00 | 0.00 | 0.00 | 47 | 1004.8 |
| 20260509192611 | 79 | 52 | 0.9 | 5.2 | 0.00 | 0.00 | 0.00 | 46 | 1004.8 |
| 20260509191845 | 79 | 165 | 0.9 | 5.2 | 0.00 | 0.00 | 0.00 | 46 | 1004.8 |
| 20260509191342 | 78 | 157 | 0.9 | 6.1 | 0.00 | 0.00 | 0.00 | 46 | 1004.9 |
| 20260509190841 | 78 | 219 | 0.9 | 4.3 | 0.00 | 0.00 | 0.00 | 47 | 1005.1 |